Temperature
11 11 11 11 11 11 10 10 10 10 11 12 12 11 11 11 11 11 10 10 9 9 9 8 8 8 7 7 7 6 6 6 6 6 5 5 5 4 4 4 3 3 3 3
11 11 10 10 11 10 10 10 10 10 11 11 10 10 10 10 10 10 9 9 9 8 8 7 7 7 6 6 6 5 5 5 5 5 5 4 4 3 3 3 2 2 2 1
8 9 9 9 10 10 10 10 10 10 10 10 9 10 10 10 9 9 8 8 8 7 7 7 6 6 5 5 5 5 5 4 4 4 4 3 3 2 2 1 1 1 1 0
7 9 8 10 11 11 10 10 10 9 9 9 9 10 10 9 8 8 7 7 7 6 6 6 5 5 5 4 4 4 4 4 3 3 2 2 1 1 1 0 0 -0 -0 -0
6 7 7 9 10 11 11 10 9 8 8 8 8 8 8 8 7 7 7 6 6 6 5 5 5 4 4 4 3 3 3 3 2 1 1 1 0 0 -0 -0 -1 -1 -1 -1
5 7 7 9 10 11 10 8 8 7 7 7 7 4 5 7 6 6 6 5 5 5 4 4 4 3 3 3 3 2 2 1 1 0 0 -0 -0 -1 -1 -1 -1 -1 -2 -2
5 5 7 8 9 10 9 8 7 7 7 7 6 5 6 6 5 5 5 5 4 4 4 3 3 3 2 2 2 1 1 0 0 -0 -1 -1 -1 -1 -2 -2 -2 -2 -2 -2
4 5 6 9 9 8 7 7 7 7 6 6 6 5 5 5 5 4 4 4 4 3 3 3 2 2 1 1 1 0 -0 -0 -1 -1 -1 -2 -2 -2 -2 -3 -3 -3 -3 -3
6 7 8 9 8 7 7 7 6 6 5 5 5 4 4 4 4 4 3 3 3 2 2 2 2 1 1 0 0 -1 -1 -1 -2 -2 -2 -2 -3 -3 -3 -3 -3 -4 -4 -4
5 6 7 7 7 6 6 6 5 5 5 4 4 4 4 3 3 3 3 2 2 2 1 1 1 1 0 -0 -1 -2 -2 -2 -2 -3 -3 -3 -3 -3 -4 -4 -4 -4 -4 -4
5 6 6 6 6 5 5 5 5 5 4 4 4 3 3 3 3 2 2 2 1 1 1 0 0 -0 -1 -1 -2 -3 -3 -3 -3 -3 -3 -4 -4 -4 -4 -4 -4 -4 -4 -4
5 6 5 6 6 5 5 5 5 4 4 4 3 3 2 2 2 2 1 1 1 0 -0 -0 -1 -1 -1 -2 -3 -3 -4 -4 -4 -4 -4 -4 -5 -5 -4 -5 -4 -4 -4 -4
6 6 6 5 5 5 4 4 4 4 3 3 3 2 2 1 1 1 1 0 0 -0 -1 -1 -1 -2 -2 -3 -3 -4 -4 -4 -5 -5 -5 -5 -5 -5 -5 -5 -4 -4 -5 -5
5 5 5 5 4 4 4 4 3 3 3 2 2 2 1 1 1 1 0 -0 -1 -1 -1 -1 -2 -2 -3 -4 -4 -4 -5 -5 -5 -5 -6 -6 -6 -6 -6 -6 -5 -5 -5 -5
5 5 4 4 4 4 4 3 3 3 2 2 2 1 1 0 0 -0 -0 -1 -1 -1 -1 -2 -3 -3 -4 -4 -5 -5 -5 -5 -6 -6 -6 -6 -6 -6 -6 -6 -6 -6 -5 -5
4 4 4 4 4 3 3 3 2 2 2 1 1 1 0 0 -0 -0 -1 -1 -2 -2 -2 -3 -3 -4 -4 -5 -5 -6 -6 -6 -6 -6 -6 -6 -6 -6 -6 -6 -6 -6 -6 -6
4 4 4 3 3 3 2 2 2 1 1 1 1 0 -0 -0 -1 -1 -1 -2 -2 -2 -3 -3 -4 -4 -5 -5 -6 -6 -6 -6 -6 -6 -6 -6 -6 -6 -6 -6 -6 -6 -6 -6
3 3 3 3 2 2 2 2 1 1 1 1 0 -0 -1 -1 -1 -1 -2 -2 -2 -2 -3 -4 -5 -5 -5 -6 -6 -6 -6 -6 -6 -6 -6 -6 -6 -6 -6 -6 -6 -6 -6 -6
3 3 3 2 2 2 1 1 1 1 0 0 -0 -1 -1 -1 -1 -2 -2 -3 -3 -3 -4 -4 -5 -6 -6 -6 -6 -6 -6 -6 -6 -6 -6 -6 -6 -6 -6 -6 -6 -6 -6 -6
2 2 2 2 2 1 1 1 1 0 -0 -0 -1 -1 -1 -1 -2 -2 -3 -3 -3 -4 -5 -5 -6 -6 -6 -6 -6 -6 -6 -6 -6 -6 -6 -6 -6 -6 -6 -6 -6 -7 -7 -7
2 2 1 1 1 1 1 0 0 -0 -1 -1 -1 -2 -2 -2 -2 -3 -3 -4 -4 -4 -5 -6 -6 -6 -7 -7 -7 -7 -7 -6 -6 -6 -6 -6 -6 -6 -6 -6 -7 -7 -7 -7
1 1 1 0 0 0 0 -0 -1 -1 -1 -1 -2 -2 -2 -2 -3 -3 -4 -4 -5 -5 -6 -6 -6 -7 -7 -7 -7 -7 -7 -7 -7 -7 -6 -7 -7 -7 -7 -7 -7 -7 -8 -8
0 0 -0 -0 -0 -1 -1 -1 -1 -1 -2 -2 -2 -2 -3 -3 -4 -4 -5 -4 -5 -6 -6 -6 -7 -7 -7 -7 -7 -7 -7 -7 -7 -7 -7 -7 -7 -7 -7 -7 -8 -8 -8 -8
-0 -1 -1 -1 -1 -1 -1 -1 -2 -2 -2 -2 -3 -3 -3 -4 -4 -4 -5 -5 -5 -6 -6 -6 -7 -7 -7 -7 -7 -7 -7 -7 -7 -7 -7 -7 -7 -7 -7 -8 -8 -8 -8 -8
-1 -1 -1 -2 -2 -2 -2 -2 -2 -3 -3 -3 -3 -3 -3 -4 -5 -5 -5 -5 -6 -6 -6 -7 -7 -7 -7 -8 -8 -8 -7 -7 -7 -7 -7 -7 -7 -7 -8 -8 -8 -8 -8 -8
-2 -2 -2 -2 -2 -3 -3 -3 -3 -3 -4 -4 -4 -4 -4 -4 -5 -5 -5 -6 -6 -7 -7 -7 -7 -8 -8 -8 -8 -8 -7 -7 -7 -7 -7 -7 -7 -8 -8 -8 -8 -8 -8 -8
-2 -2 -2 -3 -3 -3 -3 -4 -4 -4 -4 -4 -5 -4 -5 -5 -5 -6 -6 -6 -7 -7 -7 -8 -8 -8 -8 -8 -8 -8 -8 -7 -7 -7 -7 -7 -8 -8 -8 -8 -8 -8 -8 -8
Wind_Speed
7 6 5 8 11 9 11 10 11 11 12 15 10 4 1 1 3 3 3 4 5 5 6 7 8 8 7 8 7 7 7 8 9 10 10 10 11 11 11 11 12 12 12 13
4 6 7 11 15 14 12 10 11 12 14 6 1 3 2 2 3 3 5 6 7 8 8 8 8 8 8 8 8 7 8 10 10 11 11 11 11 11 11 12 12 12 13 14
4 4 7 10 10 7 6 7 8 8 5 1 2 2 1 1 2 3 6 8 8 8 9 9 8 7 8 8 8 8 9 10 11 11 12 12 12 12 12 12 12 13 13 13
2 1 8 9 3 4 4 2 0 2 2 3 1 3 3 1 1 6 8 8 8 8 8 8 7 7 7 8 9 9 10 11 11 11 13 13 12 13 13 12 12 12 13 13
4 4 9 10 6 3 3 1 3 4 3 3 4 4 4 3 3 6 8 9 8 8 7 7 8 8 8 10 10 10 11 12 12 12 13 13 14 14 13 12 12 12 12 13
5 5 8 8 4 1 3 2 1 3 3 4 4 5 5 6 8 9 10 9 8 7 6 7 8 8 9 11 11 12 13 13 13 12 13 14 15 14 13 12 13 13 13 12
6 6 9 8 5 1 3 4 0 2 2 2 2 6 8 9 9 9 9 9 8 7 7 8 9 9 10 11 13 13 13 13 13 13 13 14 14 13 13 13 13 13 14 13
7 6 9 4 3 4 3 1 1 2 3 5 7 9 9 8 9 9 9 8 7 7 9 9 9 9 12 14 14 14 13 14 14 14 13 13 14 14 13 13 14 14 13 13
10 8 2 4 6 4 3 2 3 4 6 6 7 7 8 8 8 9 9 8 7 8 10 10 10 10 14 16 15 15 14 14 14 14 13 12 13 15 14 12 12 12 12 12
5 4 3 5 5 3 3 4 5 5 6 5 6 7 8 8 8 8 8 9 8 9 12 14 12 11 12 15 15 14 16 15 14 14 14 13 11 11 11 12 12 12 12 13
4 2 2 3 2 2 2 2 3 3 3 4 6 7 7 8 9 8 9 8 8 10 13 16 15 14 13 13 14 15 15 14 14 13 14 13 12 11 13 12 14 15 13 12
6 4 3 3 3 1 2 3 4 4 6 6 5 7 8 8 8 9 10 10 11 12 13 16 16 16 14 13 13 14 14 13 12 12 12 12 13 14 18 19 24 25 23 21
4 3 4 3 2 2 2 3 4 4 5 7 7 7 7 8 8 9 11 12 13 14 15 16 16 16 15 13 13 13 15 15 12 12 12 13 13 14 15 16 20 21 22 23
3 3 2 1 2 4 3 4 4 5 5 6 6 8 9 9 10 11 13 13 14 15 15 15 16 16 15 14 14 14 14 16 16 12 12 13 13 13 13 14 15 12 14 20
3 3 3 3 3 4 4 4 5 6 7 7 7 9 10 12 13 14 14 14 14 14 15 15 17 17 15 14 14 15 14 12 12 12 12 12 12 13 12 13 13 13 11 13
1 0 1 2 4 5 5 5 6 8 9 9 10 11 12 12 13 14 13 12 13 16 17 16 17 17 16 15 15 13 12 20 19 14 12 12 12 12 12 12 12 12 11 11
3 2 2 3 5 6 6 7 8 9 10 11 12 13 12 13 14 14 13 12 12 14 15 16 17 16 15 14 14 13 12 15 21 16 12 12 12 12 12 12 12 12 11 12
4 4 4 5 6 7 9 9 9 10 11 12 13 12 12 13 15 16 15 14 13 13 13 14 14 15 14 14 13 12 12 12 12 13 13 12 13 11 12 12 12 12 11 12
2 3 5 7 8 8 9 10 11 10 11 12 12 13 13 13 13 14 14 13 15 16 13 11 22 17 14 16 19 12 13 14 14 13 12 15 15 11 11 11 11 11 11 10
4 5 7 8 9 8 10 11 12 12 12 11 12 13 14 13 12 13 13 12 11 12 13 16 16 12 13 15 19 12 13 13 14 13 12 11 12 12 11 11 11 10 9 8
7 9 10 10 11 11 11 12 12 13 13 11 11 14 15 14 12 11 11 13 11 11 13 20 14 12 13 16 20 12 12 13 13 12 12 12 12 12 11 10 10 9 9 8
8 9 11 11 12 13 12 11 11 13 13 12 12 13 13 14 12 11 11 10 12 17 14 10 10 16 21 22 11 11 12 13 12 11 11 11 11 11 10 10 9 9 8 7
9 10 11 12 12 13 12 11 11 12 13 13 13 13 13 12 10 11 13 9 9 18 15 10 17 26 28 16 10 11 13 13 12 11 11 11 10 10 9 10 8 8 7 6
10 11 11 11 11 11 14 14 12 11 11 12 12 12 12 10 10 8 9 16 19 21 12 16 25 26 24 11 10 11 12 12 12 11 11 10 9 8 8 8 7 7 6 7
11 11 11 11 11 11 12 12 11 11 10 9 10 11 10 8 9 10 10 11 17 19 12 16 23 24 16 11 11 12 12 12 13 12 11 10 9 8 7 7 7 6 6 5
10 10 10 11 10 10 10 9 9 9 9 10 9 8 8 7 8 9 9 10 12 17 13 11 12 15 11 11 12 12 12 13 13 11 11 10 9 7 7 6 7 6 5 5
10 9 8 9 8 8 8 8 9 10 9 9 11 9 8 8 8 9 10 10 10 10 10 10 10 10 11 11 12 12 11 11 10 10 10 9 7 6 6 7 6 5 5 5
Wind_Direction
245 253 247 249 256 243 223 217 232 250 256 271 279 260 226 320 345 356 348 337 322 306 295 294 296 296 298 297 300 303 305 302 296 294 292 291 289 287 285 281 279 276 276 273
270 270 274 274 265 254 246 234 236 258 271 286 103 109 75 24 13 354 322 309 302 298 295 294 293 295 299 299 301 305 303 298 297 297 297 293 291 289 286 283 280 278 276 275
264 307 337 278 255 232 226 225 214 234 250 67 61 40 353 344 3 321 301 292 292 292 287 287 289 293 298 297 301 302 298 297 298 297 296 293 291 290 287 286 283 281 277 274
213 31 249 245 237 223 235 279 355 115 72 58 356 293 286 221 291 298 293 292 291 289 289 290 293 299 299 301 303 301 299 297 296 295 294 293 292 290 288 286 284 283 281 277
161 223 276 290 280 211 172 118 58 87 51 355 312 329 307 266 303 295 292 291 288 286 288 295 301 303 306 307 305 303 300 297 295 294 294 295 294 292 291 291 290 285 283 282
159 194 242 251 262 286 102 198 47 84 41 350 12 351 289 297 309 303 301 299 297 298 302 307 308 311 310 307 306 302 299 296 295 293 292 294 294 293 292 290 290 290 287 283
178 212 258 256 270 127 192 239 128 58 8 332 280 247 267 290 293 289 292 292 296 302 303 299 303 309 305 304 301 298 297 296 295 292 291 292 292 291 292 293 292 291 289 286
163 197 249 266 110 129 180 157 179 259 267 269 264 271 282 289 290 296 298 299 304 304 301 300 301 303 303 303 300 299 298 297 295 294 294 297 294 294 293 293 294 294 294 293
189 206 197 85 114 126 146 193 240 254 265 267 274 281 290 291 296 298 298 298 299 298 301 301 298 294 298 301 302 302 300 299 298 297 295 293 293 295 297 295 294 295 294 294
220 251 144 123 130 142 187 213 237 249 262 269 280 288 295 296 298 300 299 298 299 303 307 308 307 297 291 297 300 301 301 302 300 300 300 297 292 292 294 294 294 294 294 294
236 255 124 161 170 205 235 251 272 294 287 292 296 299 297 300 301 301 302 300 300 300 302 304 306 304 300 299 301 302 301 300 301 299 299 300 296 293 292 284 285 291 292 292
227 213 189 238 250 284 316 314 313 320 319 318 311 301 303 302 300 301 303 303 303 300 299 303 305 305 305 303 302 303 305 304 303 302 302 300 301 301 294 291 295 295 294 294
184 183 189 225 247 283 290 297 304 310 307 309 310 305 304 301 299 300 301 302 301 301 302 304 305 306 307 307 304 301 301 303 303 302 302 302 302 303 304 304 300 298 298 300
160 152 184 226 264 295 298 302 310 311 303 295 293 296 298 297 297 299 300 299 299 300 302 303 305 306 308 307 305 302 301 303 305 301 300 299 299 300 301 303 306 303 301 302
168 160 210 261 299 315 320 320 318 309 303 301 297 298 298 299 300 298 298 299 300 300 302 305 306 307 308 307 305 303 303 303 302 300 299 298 299 298 296 295 297 301 302 303
214 240 254 285 303 307 312 307 298 293 294 293 295 295 292 290 291 293 295 297 301 304 306 306 304 304 306 305 304 304 303 305 310 305 302 301 300 298 297 297 298 299 300 301
216 260 278 292 296 295 287 278 274 279 285 288 289 291 293 295 297 297 297 295 291 293 297 299 299 302 304 302 303 306 304 305 307 306 300 299 298 298 298 298 299 299 299 300
204 226 244 254 267 279 285 283 280 282 283 284 289 291 292 294 297 298 300 302 301 298 294 293 296 305 304 305 306 304 303 302 302 300 300 300 300 298 297 297 298 299 300 301
245 266 273 271 268 268 273 278 281 279 281 285 287 288 288 287 288 291 297 302 304 306 303 299 309 313 306 307 312 304 302 303 304 302 301 303 304 299 297 297 298 298 298 300
294 286 280 278 277 272 274 278 280 283 283 282 283 287 290 290 289 292 295 293 289 289 295 303 308 306 306 307 310 306 306 306 305 304 304 302 301 300 299 299 299 300 303 304
288 286 285 282 282 279 275 277 281 285 287 284 282 285 289 291 291 291 295 300 295 291 300 309 313 308 309 311 313 311 308 307 306 305 304 303 303 302 303 304 305 306 305 304
285 283 282 282 283 283 280 277 277 282 286 286 283 283 287 292 293 290 280 283 293 305 311 304 305 309 317 319 314 311 309 308 307 306 306 306 305 305 307 308 306 306 306 304
279 278 279 280 280 282 284 281 277 278 281 282 284 285 286 287 291 294 299 296 298 308 314 303 311 317 321 322 313 311 310 310 309 307 306 304 303 305 306 306 307 308 308 306
281 280 278 278 281 284 287 285 280 277 275 277 277 276 279 287 288 279 278 298 309 311 309 309 318 321 324 320 312 311 310 309 307 305 304 303 303 303 303 305 307 306 305 305
278 279 281 284 285 285 283 286 287 283 280 280 278 275 273 269 276 288 291 295 304 311 308 312 317 320 321 311 312 311 310 307 306 308 306 306 305 305 304 303 303 304 305 304
281 282 282 278 278 282 284 286 288 288 287 289 289 283 280 278 277 283 290 293 294 306 310 307 309 312 314 312 311 310 309 309 310 311 307 305 304 303 302 303 303 304 305 305
283 283 285 287 283 276 275 279 282 285 284 285 291 291 287 288 287 290 293 297 300 302 304 306 308 309 311 312 312 310 310 310 309 309 308 306 302 299 299 300 302 303 304 302
Height
1516 1514 1514 1514 1513 1512 1515 1515 1516 1507 1503 1495 1492 1493 1493 1493 1493 1493 1492 1490 1489 1486 1483 1480 1476 1472 1468 1465 1461 1456 1452 1447 1443 1438 1433 1427 1422 1417 1412 1407 1403 1398 1393 1388
1514 1511 1512 1511 1504 1504 1504 1505 1504 1501 1497 1491 1491 1492 1492 1492 1492 1491 1490 1488 1485 1482 1479 1475 1471 1466 1462 1458 1455 1450 1445 1440 1435 1430 1424 1419 1414 1408 1403 1398 1393 1388 1383 1378
1522 1516 1514 1511 1497 1496 1497 1495 1496 1497 1495 1492 1492 1492 1492 1491 1490 1489 1487 1485 1481 1477 1474 1469 1465 1461 1457 1452 1448 1443 1438 1433 1428 1422 1416 1410 1405 1399 1394 1388 1383 1378 1373 1368
1523 1518 1521 1499 1490 1490 1491 1491 1491 1492 1493 1492 1493 1492 1491 1490 1488 1486 1484 1480 1476 1472 1468 1464 1460 1456 1451 1446 1442 1436 1431 1425 1419 1413 1407 1402 1396 1390 1385 1379 1373 1368 1363 1358
1524 1522 1512 1497 1488 1486 1488 1491 1492 1492 1493 1492 1491 1489 1488 1487 1485 1483 1479 1475 1472 1468 1463 1459 1455 1450 1445 1440 1435 1429 1423 1417 1412 1406 1399 1393 1387 1381 1376 1370 1363 1358 1353 1348
1521 1519 1514 1494 1485 1484 1487 1493 1493 1492 1492 1491 1489 1492 1488 1484 1481 1478 1474 1471 1467 1463 1459 1454 1450 1444 1439 1433 1427 1421 1415 1410 1404 1398 1392 1385 1379 1373 1367 1361 1354 1349 1343 1339
1515 1515 1503 1487 1483 1484 1493 1494 1492 1490 1490 1489 1488 1488 1484 1480 1477 1473 1470 1466 1462 1458 1453 1449 1444 1438 1432 1426 1420 1414 1408 1402 1396 1390 1384 1377 1370 1364 1358 1351 1345 1339 1334 1329
1511 1513 1501 1482 1482 1487 1490 1489 1489 1488 1487 1486 1484 1481 1478 1475 1471 1468 1464 1460 1456 1452 1448 1443 1438 1432 1425 1419 1413 1406 1400 1393 1387 1381 1375 1369 1362 1355 1349 1343 1336 1330 1325 1319
1491 1488 1483 1481 1483 1485 1486 1487 1486 1485 1483 1481 1479 1476 1473 1470 1466 1463 1459 1455 1451 1446 1441 1436 1432 1426 1419 1412 1405 1398 1391 1384 1378 1371 1366 1360 1353 1346 1340 1334 1328 1322 1317 1311
1484 1481 1481 1482 1482 1484 1484 1483 1482 1481 1479 1476 1474 1471 1468 1465 1462 1458 1454 1450 1445 1440 1434 1428 1423 1418 1412 1405 1398 1390 1383 1375 1369 1362 1356 1350 1345 1339 1332 1326 1321 1315 1310 1305
1480 1479 1479 1480 1480 1480 1480 1479 1477 1476 1474 1472 1470 1467 1464 1461 1457 1453 1449 1444 1440 1434 1428 1421 1415 1409 1404 1398 1390 1382 1374 1367 1361 1354 1348 1341 1336 1331 1325 1319 1316 1310 1304 1299
1477 1475 1477 1477 1477 1476 1475 1474 1473 1472 1470 1468 1466 1463 1460 1456 1453 1448 1443 1438 1433 1427 1421 1414 1408 1401 1395 1389 1382 1374 1366 1359 1353 1346 1340 1334 1327 1320 1316 1312 1307 1303 1298 1293
1471 1472 1473 1474 1474 1473 1473 1472 1470 1469 1467 1465 1462 1460 1456 1452 1447 1443 1438 1433 1427 1421 1414 1407 1400 1393 1387 1381 1374 1367 1360 1352 1345 1339 1333 1327 1320 1314 1306 1301 1299 1294 1289 1285
1470 1471 1471 1471 1471 1471 1470 1469 1467 1466 1464 1462 1459 1455 1451 1447 1442 1437 1432 1426 1420 1414 1407 1400 1393 1386 1379 1373 1366 1359 1353 1346 1339 1332 1326 1320 1314 1308 1302 1295 1289 1284 1281 1277
1468 1468 1469 1468 1468 1468 1467 1466 1464 1462 1460 1457 1454 1450 1446 1441 1435 1430 1425 1420 1413 1406 1399 1392 1385 1378 1372 1365 1359 1352 1345 1338 1332 1326 1320 1314 1308 1302 1296 1290 1284 1278 1273 1269
1466 1466 1466 1466 1465 1465 1464 1462 1460 1457 1455 1451 1448 1444 1439 1434 1429 1423 1418 1413 1406 1398 1391 1385 1377 1371 1364 1358 1351 1344 1338 1332 1326 1319 1313 1307 1301 1296 1290 1284 1279 1273 1268 1263
1463 1463 1463 1463 1462 1461 1460 1458 1456 1453 1450 1446 1441 1437 1432 1427 1421 1415 1410 1405 1399 1392 1386 1378 1370 1364 1357 1351 1345 1337 1330 1324 1318 1313 1307 1301 1295 1290 1284 1279 1274 1268 1264 1259
1461 1461 1461 1461 1459 1458 1456 1454 1451 1447 1444 1439 1435 1430 1425 1419 1413 1407 1401 1396 1389 1383 1378 1371 1364 1357 1351 1345 1338 1331 1324 1318 1312 1306 1300 1295 1289 1284 1279 1273 1268 1263 1258 1254
1459 1459 1458 1457 1456 1454 1451 1448 1445 1441 1437 1433 1427 1422 1417 1412 1407 1400 1394 1388 1381 1374 1368 1363 1356 1350 1343 1337 1331 1324 1318 1312 1306 1300 1295 1289 1283 1278 1273 1268 1263 1258 1254 1249
1456 1456 1454 1453 1451 1448 1445 1441 1438 1434 1430 1425 1420 1414 1409 1404 1399 1393 1387 1381 1375 1369 1361 1355 1349 1343 1336 1330 1324 1318 1312 1306 1300 1294 1289 1283 1278 1273 1268 1263 1258 1254 1249 1245
1453 1451 1449 1447 1444 1441 1438 1434 1430 1425 1421 1417 1412 1407 1401 1396 1391 1385 1379 1371 1366 1362 1355 1348 1343 1336 1329 1324 1318 1312 1306 1300 1294 1289 1283 1278 1273 1268 1263 1258 1254 1249 1245 1241
1448 1446 1443 1440 1436 1433 1430 1426 1422 1417 1413 1408 1404 1399 1393 1387 1382 1377 1372 1366 1359 1354 1348 1341 1336 1330 1324 1318 1312 1306 1300 1294 1289 1283 1278 1273 1268 1263 1258 1254 1249 1245 1241 1237
1441 1439 1435 1432 1428 1424 1420 1417 1413 1409 1404 1399 1395 1390 1386 1380 1376 1370 1363 1358 1353 1347 1341 1335 1329 1323 1318 1311 1305 1300 1294 1289 1283 1278 1273 1268 1264 1259 1254 1249 1245 1241 1237 1234
1434 1430 1427 1423 1419 1415 1410 1406 1403 1399 1395 1391 1387 1383 1378 1372 1367 1363 1358 1352 1346 1340 1334 1329 1323 1317 1311 1305 1299 1294 1288 1283 1278 1273 1268 1264 1259 1254 1250 1246 1242 1238 1234 1231
1425 1421 1417 1414 1409 1405 1401 1397 1393 1389 1385 1381 1378 1374 1370 1366 1361 1355 1350 1344 1339 1333 1327 1322 1316 1311 1305 1299 1294 1288 1283 1278 1273 1269 1264 1259 1255 1250 1246 1242 1238 1235 1232 1229
1416 1412 1408 1405 1401 1397 1393 1389 1385 1381 1377 1372 1368 1366 1362 1358 1353 1348 1343 1337 1332 1327 1321 1315 1310 1304 1299 1293 1288 1283 1278 1273 1268 1263 1259 1255 1250 1246 1242 1239 1236 1233 1230 1227
1407 1403 1399 1395 1392 1389 1385 1381 1377 1373 1369 1365 1361 1357 1354 1350 1345 1341 1336 1330 1325 1320 1314 1309 1304 1298 1293 1288 1282 1277 1273 1268 1264 1259 1255 1251 1247 1243 1240 1237 1234 1231 1228 1226